Le nostre stazioni meteo in Italia

Pubblicità
Il mio iltempo24.it
Pian Rosa, Italia (16052): Temperatura & dewpoint: 13.04.2019 17:00:00 - 19.04.2019 17:00:00 (CEST)Pian Rosa, Italia (16052): velocità del vento: 13.04.2019 17:00:00 - 19.04.2019 17:00:00 (CEST)Pian Rosa, Italia (16052): direzione del vento: 13.04.2019 17:00:00 - 19.04.2019 17:00:00 (CEST)Pian Rosa, Italia (16052): visibility: 13.04.2019 17:00:00 - 19.04.2019 17:00:00 (CEST)Pian Rosa, Italia (16052): ore di luce: 13.04.2019 17:00:00 - 19.04.2019 17:00:00 (CEST)
Data & Tempo tt [°C] td [°C] ff [km/h] ff [kn] dd vv [km] sd [min]
19.04.2019 17:00:00 -2,0 -7,1 9 5 O 0,1 0
19.04.2019 16:00:00 -2,8 -9,5 9 5 O 0,1 0
19.04.2019 15:00:00 -1,6 -8,8 9 5 N 0,5 0
19.04.2019 14:00:00 -2,4 -8,9 5 3 N 0,5 0
19.04.2019 13:00:00 -2,4 -8,1 5 3 N 0,1 0
19.04.2019 12:00:00 -3,2 -8,8 4 2 - 0,1 0
19.04.2019 11:00:00 -3,2 -8,7 5 3 N 0,1 0
19.04.2019 10:00:00 -4,0 -8,1 5 3 N 0,1 0
19.04.2019 09:00:00 -5,4 -8,5 0 0 N 0,1 -
19.04.2019 08:00:00 -6,0 -7,8 0 0 N 0,1 -
19.04.2019 07:00:00 -6,4 -7,1 0 0 N 0,1 -
19.04.2019 06:00:00 -6,8 -6,8 9 5 SSO 0,1 -
19.04.2019 05:00:00 -6,4 -6,4 0 0 N 0,1 -
19.04.2019 04:00:00 -6,4 -6,4 0 0 N 0,1 -
19.04.2019 03:00:00 -6,4 -6,4 0 0 N 0,1 -
19.04.2019 02:00:00 -6,2 -7,0 0 0 N 0,1 -
19.04.2019 01:00:00 -6,0 -7,4 0 0 N 0,1 -
19.04.2019 00:00:00 -6,0 -8,6 0 0 N 0,1 -
18.04.2019 23:00:00 -6,0 -6,0 0 0 N 0,1 -
18.04.2019 22:00:00 -5,0 -6,1 0 0 N 0,1 -
18.04.2019 21:00:00 -5,0 -5,0 0 0 N 0,1 -
18.04.2019 20:00:00 -4,8 -4,8 0 0 N 0,1 -
18.04.2019 19:00:00 -4,4 -4,4 0 0 N 0,2 0
18.04.2019 18:00:00 -4,8 -4,8 0 0 N 0,2 0
18.04.2019 17:00:00 -3,4 -7,2 0 0 N 0,2 24
18.04.2019 16:00:00 -2,4 -10,9 5 3 ENE 50 0
18.04.2019 15:00:00 -1,8 -6,4 9 5 OSO 0,2 0
18.04.2019 14:00:00 -2,2 -6,2 9 5 OSO 0,2 18
18.04.2019 13:00:00 -3,8 -7,2 15 8 SSO 0,2 60
18.04.2019 12:00:00 -4,2 -7,5 15 8 SSO 1,0 60
18.04.2019 11:00:00 -4,8 -12,0 11 6 SSO 3,0 60
18.04.2019 10:00:00 -3,8 -15,1 9 5 SSO 50 18
18.04.2019 09:00:00 -4,2 -12,6 0 0 N 50 0
18.04.2019 08:00:00 -4,8 -15,5 0 0 N 50 -
18.04.2019 07:00:00 -5,2 -14,8 0 0 N 25 -
18.04.2019 06:00:00 -5,4 -16,9 0 0 N 0,8 -
18.04.2019 05:00:00 -6,8 -6,8 0 0 N 0,1 -
18.04.2019 04:00:00 -6,2 -6,2 9 5 SSO 0,1 -
18.04.2019 03:00:00 -6,0 -6,4 9 5 SSO 0,1 -
18.04.2019 02:00:00 -6,2 -9,9 9 5 O 10 -
18.04.2019 01:00:00 -6,2 -6,2 9 5 S 0,1 -
18.04.2019 00:00:00 -6,0 -6,7 9 5 SSO 0,1 -
17.04.2019 23:00:00 -5,4 -8,3 9 5 SSO 10 -
17.04.2019 22:00:00 -4,8 -15,5 0 0 N 10 -
17.04.2019 21:00:00 -5,0 -12,0 9 5 ENE 10 -
17.04.2019 20:00:00 -3,3 -7,6 0 0 N 25 18
17.04.2019 19:00:00 -3,8 -9,8 0 0 N 15 60
17.04.2019 18:00:00 -2,6 -8,9 0 0 N 6 60
17.04.2019 17:00:00 -1,8 -6,9 0 0 N 35 60
17.04.2019 16:00:00 -1,8 -7,5 9 5 SSO 8 30
17.04.2019 15:00:00 -1,2 -6,5 9 5 SSO 25 0
17.04.2019 14:00:00 -1,2 -6,4 0 0 N 0,3 24
17.04.2019 13:00:00 -2,4 -6,4 0 0 N 0,3 60
17.04.2019 12:00:00 -3,6 -7,5 9 5 SSO 80 60
17.04.2019 11:00:00 -3,8 -7,7 9 5 SSO 80 60
17.04.2019 10:00:00 -4,4 -7,6 9 5 SSO 80 24
17.04.2019 09:00:00 -5,2 -7,2 0 0 N 80 0
17.04.2019 08:00:00 -7,2 -8,0 0 0 N 80 -
17.04.2019 07:00:00 -7,2 -7,2 0 0 N 20 -
17.04.2019 06:00:00 -7,0 -7,0 9 5 SSO 12 -
17.04.2019 05:00:00 -7,0 -7,0 0 0 N 10 -
17.04.2019 04:00:00 -6,8 -6,8 0 0 N 10 -
17.04.2019 03:00:00 -7,2 -7,2 0 0 N 10 -
17.04.2019 02:00:00 -7,0 -7,0 18 10 E 0,1 -
17.04.2019 01:00:00 -7,0 -7,0 18 10 E 0,1 -
17.04.2019 00:00:00 -7,0 -7,0 28 15 E 0,1 -
16.04.2019 23:00:00 -7,0 -7,0 18 10 E 0,3 -
16.04.2019 22:00:00 -6,8 -6,8 18 10 E 0,3 -
16.04.2019 21:00:00 -6,4 -6,8 18 10 E 0,3 -
16.04.2019 20:00:00 -6,2 -9,1 0 0 N 0,8 0
16.04.2019 19:00:00 -4,8 -9,8 0 0 N 0,8 0
16.04.2019 18:00:00 -2,0 -7,9 0 0 N 0,1 0
16.04.2019 17:00:00 -1,4 -7,3 0 0 N 0,3 0
16.04.2019 16:00:00 -1,8 -7,5 9 5 SSO 0,8 0
16.04.2019 15:00:00 -2,6 -7,7 9 5 SSO 0,1 0
16.04.2019 14:00:00 -3,6 -8,3 9 5 SSO 0,3 0
16.04.2019 13:00:00 -4,4 -9,8 0 0 N 0,3 0
16.04.2019 12:00:00 -4,6 -10,8 0 0 N 25 0
16.04.2019 11:00:00 -4,2 -10,4 0 0 N 25 0
16.04.2019 10:00:00 -7,6 -12,5 0 0 N 40 0
16.04.2019 09:00:00 -8,8 -12,9 9 5 NE 50 0
16.04.2019 08:00:00 -9,0 -13,8 15 8 ENE 50 -
16.04.2019 07:00:00 -9,0 -14,0 15 8 NE 40 -
16.04.2019 06:00:00 -9,0 -16,8 18 10 SSO 10 -
16.04.2019 05:00:00 -9,8 -11,1 18 10 SSO 10 -
16.04.2019 04:00:00 -10,0 -11,3 18 10 SSO 10 -
16.04.2019 03:00:00 -10,0 -10,9 18 10 SSO 10 -
16.04.2019 02:00:00 -9,8 -10,6 9 5 OSO 10 -
16.04.2019 01:00:00 -9,4 -9,5 9 5 SO 0,5 -
16.04.2019 00:00:00 -9,2 -9,2 9 5 SO 0,1 -
15.04.2019 23:00:00 -9,0 -9,0 9 5 SO 0,1 -
15.04.2019 22:00:00 -8,6 -8,6 9 5 SO 0,1 -
15.04.2019 21:00:00 -8,2 -8,2 0 0 N 0,1 0
15.04.2019 20:00:00 -7,8 -7,8 18 10 O 0,1 -
15.04.2019 19:00:00 -6,8 -6,8 0 0 N 0,1 0
15.04.2019 18:00:00 -5,8 -7,5 0 0 N 0,1 0
15.04.2019 17:00:00 -4,8 -7,9 0 0 N 0,1 0
15.04.2019 16:00:00 -4,8 -8,1 9 5 O 0,1 0
15.04.2019 15:00:00 -5,2 -9,5 18 10 O 0,1 0
15.04.2019 14:00:00 -4,4 -8,5 15 8 O 0,1 0
15.04.2019 13:00:00 -5,0 -8,7 0 0 N 0,3 0
15.04.2019 12:00:00 -5,4 -9,1 0 0 N 0,3 0
15.04.2019 11:00:00 -6,4 -7,5 0 0 N 0,3 0
15.04.2019 10:00:00 -7,8 -7,8 0 0 N 0,3 0
15.04.2019 09:00:00 -9,6 -9,6 0 0 N 0,3 0
15.04.2019 08:00:00 -10,8 -10,8 0 0 N 0,3 -
15.04.2019 07:00:00 -10,8 -10,8 0 0 N 0,1 -
15.04.2019 06:00:00 -10,6 -10,6 0 0 N 0,8 -
15.04.2019 05:00:00 -10,6 -10,6 9 5 ESE 0,8 -
15.04.2019 04:00:00 -10,6 -10,6 4 2 - 0,1 -
15.04.2019 03:00:00 -10,6 -10,6 28 15 ESE 1,0 -
15.04.2019 02:00:00 -11,2 -11,2 9 5 E 1,0 -
15.04.2019 01:00:00 -11,8 -11,8 18 10 SE 10 -
15.04.2019 00:00:00 -13,6 -13,6 28 15 ESE 15 -
14.04.2019 23:00:00 -13,8 -13,8 28 15 E 0,2 -
14.04.2019 22:00:00 -13,6 -13,6 28 15 E 0,5 -
14.04.2019 21:00:00 -13,2 -13,2 28 15 ENE 0,1 -
14.04.2019 20:00:00 -12,6 -12,6 0 0 N 0,1 12
14.04.2019 19:00:00 -12,4 -14,5 4 2 - 10 60
14.04.2019 18:00:00 -11,8 -15,5 15 8 OSO 10 60
14.04.2019 17:00:00 -11,0 -14,7 5 3 N 10 60
14.04.2019 16:00:00 -11,0 -14,6 5 3 N 6 60
14.04.2019 15:00:00 -10,0 -14,3 5 3 N 3,0 60
14.04.2019 14:00:00 -11,2 -14,7 5 3 - 3,0 60
14.04.2019 13:00:00 -11,8 -13,4 5 3 N 3,5 60
14.04.2019 12:00:00 -12,4 -12,4 0 0 N 5 60
14.04.2019 11:00:00 -15,0 -15,0 9 5 NE 1,0 24
14.04.2019 10:00:00 -16,0 -16,0 18 10 ENE 1,0 0
14.04.2019 09:00:00 -16,2 -16,2 28 15 ENE 3,5 0
14.04.2019 08:00:00 -16,2 -16,3 28 15 NE 7 -
14.04.2019 07:00:00 -16,0 -17,1 28 15 ENE 7 -
14.04.2019 06:00:00 -15,2 -18,6 18 10 E 0,8 -
14.04.2019 05:00:00 -13,8 -17,1 0 0 N 10 -
14.04.2019 04:00:00 -14,0 -22,2 11 6 O 10 -
14.04.2019 03:00:00 -13,4 -26,3 11 6 NNO 10 -
14.04.2019 02:00:00 -13,0 -26,3 15 8 SO 10 -
14.04.2019 01:00:00 -12,6 -30,0 11 6 SSO 10 -
14.04.2019 00:00:00 -12,2 -27,8 0 0 N 10 -
13.04.2019 23:00:00 -12,2 -28,2 11 6 SSO 10 -
13.04.2019 22:00:00 -12,0 -16,4 9 5 SSO 10 -
13.04.2019 21:00:00 -10,2 -15,5 0 0 N 10 -
13.04.2019 20:00:00 -8,4 -12,2 28 15 O 7 0
13.04.2019 19:00:00 -8,0 -13,4 18 10 S 1,5 24
13.04.2019 18:00:00 -6,8 -12,5 5 3 N 1,5 0
13.04.2019 17:00:00 -6,8 -14,1 4 2 - 0,3 0

tt = Temperatura
td = dewpoint
ff = velocità del vento
dd = direzione del vento
vv = visibility
sd = ore di luce

Stazioni seguenti

WeatherPro
AMSI
MeteoEarth